Location: Table Mountain
(47.2500°N, 120.5778°W)
Time: 16:09:44
(UTC-07:00)

N. Korean satellite - Pass Details

Date: 11 October 2017
Orbit: 459 x 517 km, 97.2° (Epoch: 21 October)

Event Time Altitude Azimuth Distance (km) Brightness Sun altitude
Rises 19:09:16 0° 173° (S) 2,553 10.2 -8.9°
Reaches altitude 10° 19:11:22 10° 176° (S) 1,667 9.3 -9.3°
Maximum altitude 19:14:55 64° 259° (W) 536 7.0 -9.9°
Drops below altitude 10° 19:18:26 10° 342° (NNW) 1,649 9.5 -10.5°
Sets 19:20:30 0° 345° (NNW) 2,524 10.4 -10.8°
